Flag for United Kingdom Weather past 2 weeks in Watford, England, United Kingdom

Now
66 °F

Scattered clouds.


Feels Like: 66 °F
Forecast: 61 / 80 °F
Wind: 10 mph from North

Location: Northolt

Current Time: Jul 22, 2014 at 10:44:59 AM

Latest Report: Jul 22, 2014 at 9:50 AM


Visibility: N/A

Pressure: 30.21 "Hg

Humidity: 73%

Dew point: 57 °F

Location of WatfordLocation

Historic Weather in Watford — Graph

°F

Watford temperature yesterday

Maximum temperature yesterday: 79 °F (at 3:50 PM)
Minimum temperature yesterday: 61 °F (at 4:50 AM)
Average temperature yesterday: 70 °F

Past Weeks' High & Low Weather Summary

 TemperatureHumidityPressure
High86 °F (Jul 18, 1:50 PM)100% (Jul 8, 2:50 AM)30.21 "Hg (Jul 8, 2:50 AM)
Low52 °F (Jul 8, 2:50 AM)37% (Jul 18, 5:50 PM)29.71 "Hg (Jul 13, 12:50 PM)
Average67 °F70%29.98 "Hg
* Reported Jul 7 8:50 AM — Jul 22 8:50 AM, Watford, Weather by CustomWeather, © 2014

Note: Actual official high and low records may vary slightly from our data, if they occured in-between our weather recording intervals... More about our weather records

Advertising

Watford weather history for previous 24 hours

 ConditionsComfort  
Time TempWeatherWind HumidityBarometerVisibility
8:50 AM
Jul 22
64 °FPassing clouds.10 mph78%30.21 "HgN/A
7:50 AM61 °FPassing clouds.7 mph88%30.21 "HgN/A
6:50 AM59 °FPartly sunny.8 mph94%30.18 "HgN/A
5:50 AM59 °FClear.5 mph94%30.18 "HgN/A
4:50 AM59 °FClear.5 mph88%30.18 "HgN/A
3:50 AM61 °FClear.6 mph88%30.18 "HgN/A
2:50 AM63 °FClear.6 mph88%30.15 "HgN/A
1:50 AM64 °FClear.6 mph78%30.18 "Hg10 mi
12:50 AM66 °FClear.6 mph68%30.15 "Hg10 mi
11:50 PM
Jul 21
66 °FClear.7 mph68%30.15 "Hg10 mi
10:50 PM68 °FClear.6 mph64%30.15 "Hg10 mi
9:50 PM70 °FSunny.8 mph60%30.15 "Hg10 mi
8:50 PM75 °FSunny.8 mph50%30.12 "Hg10 mi
7:50 PM77 °FBroken clouds.9 mph51%30.09 "HgN/A
6:50 PM79 °FPartly sunny.8 mph48%30.09 "HgN/A
5:50 PM79 °FScattered clouds.10 mph45%30.09 "HgN/A
4:50 PM79 °FScattered clouds.13 mph48%30.09 "HgN/A
3:50 PM79 °FScattered clouds.7 mph51%30.09 "HgN/A
2:50 PM75 °FBroken clouds.9 mph57%30.09 "HgN/A
1:50 PM73 °FBroken clouds.8 mph61%30.09 "HgN/A
12:50 PM72 °FBroken clouds.7 mph65%30.09 "HgN/A
11:50 AM72 °FBroken clouds.9 mph69%30.07 "HgN/A
10:50 AM70 °FPassing clouds.9 mph73%30.07 "HgN/A
Weather by CustomWeather, © 2014

See weather overviewHow to use our weather pages